This is the latest recevied weather packets stored in our database for station/object NW5W-12. If no packets are shown the sender has not sent any weather packets the latest 1 day(s).
| Time | Temp. | Humidity | Pressure | Rain* | Wind** | Luminosity | Snow |
|---|---|---|---|---|---|---|---|
| 1778043042 | 6.67° C | 72% | 1012.7 hPa | 0.51 mm | 2.24 m/s, 157° | - | - |
| 1778042742 | 6.67° C | 71% | 1012.7 hPa | 0.51 mm | 1.79 m/s, 160° | - | - |
| 1778042442 | 6.67° C | 71% | 1012.7 hPa | 0.51 mm | 1.79 m/s, 154° | - | - |
| 1778042142 | 6.67° C | 71% | 1012.8 hPa | 0.51 mm | 2.68 m/s, 166° | - | - |
| 1778041842 | 6.67° C | 72% | 1012.8 hPa | 0.51 mm | 1.79 m/s, 156° | - | - |
| 1778041542 | 6.67° C | 72% | 1012.8 hPa | 0.51 mm | 2.68 m/s, 155° | - | - |
| 1778041242 | 6.11° C | 73% | 1012.8 hPa | 0.51 mm | 1.79 m/s, 176° | - | - |
| 1778040942 | 6.11° C | 74% | 1012.8 hPa | 0.51 mm | 2.24 m/s, 155° | - | - |
| 1778040642 | 6.11° C | 75% | 1012.7 hPa | 0.51 mm | 1.34 m/s, 165° | - | - |
| 1778040342 | 6.11° C | 76% | 1012.8 hPa | 0.51 mm | 1.34 m/s, 167° | - | - |
| 1778040042 | 6.11° C | 76% | 1012.7 hPa | 0.51 mm | 1.34 m/s, 154° | - | - |
| 1778039742 | 6.11° C | 75% | 1012.7 hPa | 0.51 mm | 0.89 m/s, 201° | - | - |
| 1778039442 | 6.11° C | 75% | 1012.7 hPa | 0.51 mm | 1.79 m/s, 184° | - | - |
| 1778039146 | 6.11° C | 75% | 1012.6 hPa | 0.51 mm | 1.79 m/s, 179° | - | - |
| 1778038842 | 6.11° C | 75% | 1012.5 hPa | 0.51 mm | 1.34 m/s, 161° | - | - |
| 1778038542 | 6.11° C | 75% | 1012.6 hPa | 0.51 mm | 1.34 m/s, 160° | - | - |
| 1778038242 | 6.11° C | 75% | 1012.6 hPa | 0.51 mm | 1.34 m/s, 191° | - | - |
| 1778037942 | 6.11° C | 75% | 1012.6 hPa | 0.51 mm | 1.79 m/s, 176° | - | - |
| 1778037642 | 6.11° C | 75% | 1012.5 hPa | 0.51 mm | 1.79 m/s, 187° | - | - |
| 1778037342 | 6.11° C | 74% | 1012.5 hPa | 0.51 mm | 1.34 m/s, 181° | - | - |
| 1778037042 | 6.11° C | 75% | 1012.5 hPa | 0.51 mm | 0.45 m/s, 168° | - | - |
| 1778036742 | 6.11° C | 75% | 1012.5 hPa | 0.51 mm | 1.79 m/s, 178° | - | - |
| 1778036442 | 6.11° C | 75% | 1012.4 hPa | 0.51 mm | 0.45 m/s, 175° | - | - |
| 1778036142 | 6.67° C | 75% | 1012.4 hPa | 0.51 mm | 1.34 m/s, 168° | - | - |
| 1778035842 | 6.67° C | 76% | 1012.4 hPa | 0.51 mm | 0.45 m/s, 163° | - | - |
* Rain since midnight (hover to see other rain measurements)
** Current wind speed in m/s (hover to see current wind gust speed)